BACAU current weather conditions

sailwx.info

Wind from 180 at 5 knots

Air temperature -3.0° C
Visibility: greater than 5.4 NM
Dewpoint -6.0° C

Last reported at 2019-Jan-22 01:00 UTC.
Time now 2019-Jan-22 01:50 UTC

Location: N 46°31' E 026°55'.
View on Google Maps.

See reports from other nearby stations

  
Tides and Currents Weather Stations Pressure Air Temp Water Temp Dewpoint Dewpoint Depression Visibility Wind Speed Wind Dir Waves Ship Positions
date/time (UTC)wind fromknots sea level pressurealtimeterstation pressurevisibilityair tempwater tempwave heightnotes
2019-Jan-22 01:00 180 5 5.4-3.0
2019-Jan-22 00:30 170 4 5.4-3.0
2019-Jan-22 00:00 160 0 5.4-3.0
2019-Jan-21 23:30 5.4-3.0
2019-Jan-21 23:00 5.4-3.0
2019-Jan-21 22:30 5.4-3.0
2019-Jan-21 22:00 5.4-3.0 Light snow.
2019-Jan-21 21:30 120 0 5.4-3.0 Light snow.
2019-Jan-21 21:00 5.4-3.0
2019-Jan-21 20:30 5.4-3.0
2019-Jan-21 20:00 5.4-2.0
2019-Jan-21 19:30 5.4-2.0
2019-Jan-21 19:00 040 2 5.4-2.0
2019-Jan-21 18:30 070 2 5.4-2.0
2019-Jan-21 18:00 330 6 5.4-2.0
2019-Jan-21 17:30 320 6 5.4-2.0
2019-Jan-21 17:00 330 6 5.4-2.0
2019-Jan-21 16:30 330 6 5.4-2.0
2019-Jan-21 16:00 340 6 5.4-2.0
2019-Jan-21 15:30 340 6 5.4-2.0
2019-Jan-21 15:00 330 7 5.4-2.0
2019-Jan-21 14:30 350 7 5.4-1.0
2019-Jan-21 14:00 350 9 5.4-1.0
2019-Jan-21 13:30 350 11 5.4-0.0
2019-Jan-21 13:00 360 9 5.4-0.0
2019-Jan-21 12:30 340 12 5.4-0.0
2019-Jan-21 12:00 350 8 5.4-0.0
2019-Jan-21 11:30 350 8 5.4-0.0
2019-Jan-21 11:00 350 9 5.4-0.0
2019-Jan-21 10:30 360 12 5.4-0.0
2019-Jan-21 10:00 350 13 5.4-0.0
2019-Jan-21 09:30 340 14 5.4-0.0
2019-Jan-21 09:00 350 8 4.3-0.0 Light snow.
2019-Jan-21 08:30 350 7 4.3-0.0 Light snow.
2019-Jan-21 08:00 350 11 3.8-0.0 Light snow.
2019-Jan-21 07:30 340 11 2.7-1.0 Light snow. Mist.
2019-Jan-21 07:00 350 11 2.7-1.0 Light snow. Mist.
2019-Jan-21 06:30 340 11 5.4-1.0 Light snow.
2019-Jan-21 06:00 350 8 5.4-1.0 Light snow.
2019-Jan-21 05:30 340 13 5.4-1.0
2019-Jan-21 05:00 340 12 3.8-1.0 Light snow.
2019-Jan-21 04:30 340 11 2.2-1.0 Light snow. Mist.
2019-Jan-21 04:00 340 11 1.6-1.0 Light snow. Mist.
2019-Jan-21 03:30 340 9 2.7-1.0 Light snow. Mist.
2019-Jan-21 03:00 340 12 2.7-1.0 Light snow. Mist.
2019-Jan-21 02:30 340 14 2.3-1.0 Light snow. Mist.
2019-Jan-21 02:00 340 13 3.8-0.0 Light snow.
2019-Jan-21 01:30 340 13 2.2-0.0 Light snow. Mist.
2019-Jan-21 01:00 340 13 2.2-0.0 Light snow. Mist.
2019-Jan-21 00:30 340 11 2.7-0.0 Light snow.
2019-Jan-21 00:00 340 13 2.7-0.0 Light snow.
2019-Jan-20 23:30 340 11 1.6-0.0 Light snow. Mist.
2019-Jan-20 23:00 330 13 0.8-0.0 Snow. Mist.
2019-Jan-20 22:30 340 12 1.1 1.0 Snow. Mist.
2019-Jan-20 22:00 340 9 1.1 1.0 Snow. Mist.
2019-Jan-20 21:30 340 9 1.3 1.0 Light snow. Mist.
2019-Jan-20 21:00 340 8 2.7 1.0 Light drizzle snow. Mist.
2019-Jan-20 20:30 340 8 2.7 1.0 Light drizzle snow. Mist.
2019-Jan-20 20:00 350 7 2.2 1.0 Light drizzle snow. Mist.
2019-Jan-20 19:30 350 7 2.2 1.0 Light drizzle snow. Mist.
2019-Jan-20 19:00 350 6 2.7 2.0 Light rain. Mist.
2019-Jan-20 18:30 350 6 2.7 2.0 Light drizzle snow. Mist.
2019-Jan-20 18:00 350 6 1.9 2.0 Rain. Mist.
2019-Jan-20 17:30 340 6 1.5 2.0 Rain. Mist.
2019-Jan-20 17:00 0.6 2.0 Light rain. Mist.
2019-Jan-20 16:30 0.3 2.0 Fog.
2019-Jan-20 16:00 220 4 0.2 2.0 Fog.
2019-Jan-20 15:30 180 7 0.2 2.0 Fog.
2019-Jan-20 15:00 170 8 0.2 2.0 Fog.
2019-Jan-20 14:30 170 11 0.3 2.0 Fog.
2019-Jan-20 14:00 170 12 0.3 2.0 Fog.
2019-Jan-20 13:30 170 13 0.2 2.0 Fog.
2019-Jan-20 13:00 170 13 0.4 2.0 Fog.
2019-Jan-20 12:30 170 13 0.6 1.0 Mist.
2019-Jan-20 12:00 160 13 1.3 1.0 Mist.
2019-Jan-20 11:30 170 13 1.4 1.0 Mist.
2019-Jan-20 11:00 170 13 1.3 1.0 Mist.
2019-Jan-20 10:30 170 14 1.5 1.0 Mist.
2019-Jan-20 10:00 170 13 1.0
2019-Jan-20 09:30 180 13 1.4 1.0 Mist.
2019-Jan-20 09:00 170 11 1.1-0.0 Mist.
2019-Jan-20 08:30 170 11 0.6-0.0 Mist.
2019-Jan-20 08:00 170 11 0.9-1.0 Mist.
2019-Jan-20 07:30 160 11 1.2-1.0 Mist.
2019-Jan-20 07:00 170 9 1.7-1.0 Mist.
2019-Jan-20 06:30 170 11 3.2-1.0
2019-Jan-20 06:00 170 11 4.9-1.0
2019-Jan-20 05:30 170 11 5.4-1.0
2019-Jan-20 05:00 160 13 5.4-1.0
2019-Jan-20 04:30 160 11 5.4-1.0
2019-Jan-20 04:00 150 12 5.4-1.0
2019-Jan-20 03:30 150 11 5.4-1.0
2019-Jan-20 03:00 160 12 5.4-1.0
2019-Jan-20 02:30 160 12 5.4-1.0
2019-Jan-20 02:00 160 9 5.4-1.0
2019-Jan-20 01:30 160 7 5.4-1.0
2019-Jan-20 01:00 160 7 5.4-1.0